TimeCST,TemperatureF,Dew PointF,Humidity,Sea Level PressureIn,VisibilityMPH,Wind Direction,Wind SpeedMPH,Gust SpeedMPH,PrecipitationIn,Events,Conditions,WindDirDegrees,DateUTC
12:53 AM,8.1,3.9,83,30.19,10.0,NNE,6.9,-,0.00,,Overcast,20,2012-12-23 06:53:00
1:00 AM,8.6,3.2,79,30.10,10.0,NNE,5.8,-,N/A,,Overcast,20,2012-12-23 07:00:00
1:53 AM,8.1,3.9,83,30.19,9.0,North,6.9,-,0.00,,Overcast,360,2012-12-23 07:53:00
2:53 AM,7.0,3.9,87,30.20,10.0,NNE,6.9,-,N/A,,Overcast,20,2012-12-23 08:53:00
3:53 AM,7.0,3.0,84,30.20,10.0,NNE,5.8,-,0.00,,Overcast,30,2012-12-23 09:53:00
4:53 AM,7.0,3.0,84,30.21,10.0,NNE,6.9,-,N/A,,Overcast,20,2012-12-23 10:53:00
5:53 AM,7.0,3.0,84,30.21,10.0,NE,4.6,-,N/A,,Overcast,40,2012-12-23 11:53:00
6:53 AM,7.0,3.0,84,30.22,10.0,Calm,Calm,-,N/A,,Overcast,0,2012-12-23 12:53:00
7:53 AM,6.1,1.9,83,30.22,10.0,NNE,3.5,-,N/A,,Overcast,30,2012-12-23 13:53:00
8:53 AM,6.1,3.0,87,30.22,10.0,NE,3.5,-,N/A,,Overcast,40,2012-12-23 14:53:00
9:53 AM,7.0,3.9,87,30.22,10.0,East,4.6,-,N/A,,Overcast,80,2012-12-23 15:53:00
10:50 AM,8.6,3.2,79,30.11,10.0,East,3.5,-,N/A,,Scattered Clouds,90,2012-12-23 16:50:00
10:53 AM,8.1,3.9,83,30.22,10.0,East,4.6,-,N/A,,Partly Cloudy,80,2012-12-23 16:53:00
11:53 AM,10.0,3.9,76,30.19,10.0,East,3.5,-,N/A,,Partly Cloudy,90,2012-12-23 17:53:00
12:53 PM,10.9,5.0,77,30.19,10.0,ENE,4.6,-,N/A,,Scattered Clouds,60,2012-12-23 18:53:00
1:53 PM,12.0,6.1,77,30.17,10.0,ENE,4.6,-,N/A,,Overcast,60,2012-12-23 19:53:00
2:53 PM,12.9,6.1,74,30.18,10.0,NNE,4.6,-,N/A,,Overcast,30,2012-12-23 20:53:00
3:53 PM,12.9,5.0,71,30.19,10.0,ENE,3.5,-,N/A,,Overcast,60,2012-12-23 21:53:00
4:53 PM,12.9,6.1,74,30.19,10.0,NNE,3.5,-,N/A,,Overcast,20,2012-12-23 22:53:00
5:53 PM,12.0,6.1,77,30.18,10.0,NNE,6.9,-,N/A,,Overcast,20,2012-12-23 23:53:00
6:53 PM,12.0,7.0,80,30.17,10.0,NNE,8.1,-,N/A,,Overcast,20,2012-12-24 00:53:00
7:18 PM,10.4,6.8,85,30.06,2.0,NNE,8.1,-,0.00,Snow,Light Snow,30,2012-12-24 01:18:00
7:25 PM,10.4,6.8,85,30.06,1.5,NNE,6.9,-,0.00,Snow,Light Snow,20,2012-12-24 01:25:00
7:35 PM,10.4,6.8,85,30.06,2.0,NNE,6.9,-,0.00,Snow,Light Snow,20,2012-12-24 01:35:00
7:53 PM,10.9,6.1,81,30.16,1.8,NNE,6.9,-,0.00,Snow,Light Snow,20,2012-12-24 01:53:00
8:07 PM,10.4,6.8,85,30.05,2.0,NNE,5.8,-,0.00,Snow,Light Snow,30,2012-12-24 02:07:00
8:53 PM,10.9,6.1,81,30.15,2.0,NE,3.5,-,0.00,Snow,Light Snow,40,2012-12-24 02:53:00
9:10 PM,10.4,6.8,85,30.05,1.8,NNE,3.5,-,0.00,Snow,Light Snow,30,2012-12-24 03:10:00
9:53 PM,10.0,6.1,84,30.15,1.8,NNE,5.8,-,0.01,Snow,Light Snow,20,2012-12-24 03:53:00
10:16 PM,10.4,5.0,79,30.04,2.5,NNE,4.6,-,0.00,Snow,Light Snow,20,2012-12-24 04:16:00
10:25 PM,10.4,6.8,85,30.04,3.0,NNE,3.5,-,0.00,Snow,Light Snow,30,2012-12-24 04:25:00
10:33 PM,10.4,6.8,85,30.04,2.0,Calm,Calm,-,0.00,Snow,Light Snow,0,2012-12-24 04:33:00
10:42 PM,10.4,6.8,85,30.05,1.5,Calm,Calm,-,0.00,Snow,Light Snow,0,2012-12-24 04:42:00
10:53 PM,10.0,6.1,84,30.16,1.8,North,5.8,-,0.00,Snow,Light Snow,350,2012-12-24 04:53:00
11:00 PM,10.4,6.8,85,30.05,2.0,NW,4.6,-,0.01,Snow,Light Snow,320,2012-12-24 05:00:00
11:08 PM,10.4,6.8,85,30.05,1.5,NNW,3.5,-,0.01,Snow,Light Snow,340,2012-12-24 05:08:00
11:53 PM,10.0,6.1,84,30.14,2.0,North,6.9,-,0.02,Snow,Light Snow,350,2012-12-24 05:53:00